Waukegan, IL

10:10 AM CDT on May 24, 2017 (GMT -0500)
Waukegan Regional

Weather History for KUGN - April, 2014

Change the Weather History Date:

Sunday, April 6, 2014

  Actual Average Record
Temperature  
Mean Temperature 41 °F -  
Max Temperature 52 °F 52 °F 73 °F (2005)
Min Temperature 30 °F 33 °F 21 °F (2007)
Degree Days  
Heating Degree Days 24 23  
Month to date heating degree days 164 142  
Since 1 July heating degree days 7172 6012  
Cooling Degree Days 0 0  
Month to date cooling degree days 0 0  
Year to date cooling degree days 0 0  
Moisture  
Dew Point 25 °F    
Average Humidity 54    
Maximum Humidity 69    
Minimum Humidity 39    
Precipitation  
Precipitation 0.00 in 0.10 in 0.81 in (2016)
Month to date precipitation 0.19 0.55  
Year to date precipitation 2.97 5.92  
Sea Level Pressure  
Sea Level Pressure 30.08 in    
Wind  
Wind Speed 9 mph (South)    
Max Wind Speed 18 mph    
Max Gust Speed 22 mph    
Visibility 10 miles    
Events      
T = Trace of Precipitation, MM = Missing Value Source: NWS Daily Summary

Daily Weather History Graph

Daily Weather History Graph

Search for Another Location

Airport or City:

Trip Planner

Search our weather history database for the weather conditions in past years. The results will help you decide how hot, cold, wet, or windy it might be!

Date:

Astronomy

Apr. 06, 2014 Rise Set
Actual Time 6:25 AM CDT 7:23 PM CDT
Civil Twilight 5:56 AM CDT 7:51 PM CDT
Nautical Twilight 5:22 AM CDT 8:25 PM CDT
Astronomical Twilight 4:47 AM CDT 9:01 PM CDT
Moon 11:22 AM CDT (4/6) 1:22 AM CDT (4/6)
Length of Visible Light 13h 55m
Length of Day
12h 57m
Waxing Crescent, 44% of the Moon is Illuminated
Apr 6
Waxing Crescent
Apr 7
First Quarter
Apr 15
Full
Apr 22
Last Quarter
Apr 29
New

Hourly Weather History & Observations

Time (CDT) Temp. Windchill Dew Point Humidity Pressure Visibility Wind Dir Wind Speed Gust Speed Precip Events Conditions
12:52 AM 30.9 °F 25.2 °F 21.0 °F 67% 30.17 in 10.0 mi South 5.8 mph - N/A   Clear
1:52 AM 32.0 °F 27.5 °F 21.0 °F 64% 30.16 in 10.0 mi SSW 4.6 mph - N/A   Clear
2:52 AM 32.0 °F 25.6 °F 21.0 °F 64% 30.16 in 10.0 mi SSW 6.9 mph - N/A   Clear
3:52 AM 33.1 °F 25.5 °F 21.0 °F 61% 30.15 in 10.0 mi SSW 9.2 mph - N/A   Clear
4:52 AM 32.0 °F 24.2 °F 19.9 °F 61% 30.15 in 10.0 mi SSW 9.2 mph - N/A   Clear
5:52 AM 30.9 °F 22.8 °F 19.9 °F 64% 30.15 in 10.0 mi SSW 9.2 mph - N/A   Clear
6:52 AM 33.1 °F 24.4 °F 19.9 °F 59% 30.17 in 10.0 mi SSW 11.5 mph - N/A   Clear
7:52 AM 37.9 °F 30.9 °F 23.0 °F 55% 30.18 in 10.0 mi SSW 10.4 mph - N/A   Clear
8:52 AM 43.0 °F 36.4 °F 25.0 °F 49% 30.16 in 10.0 mi SSW 12.7 mph - N/A   Clear
9:52 AM 48.0 °F - 27.0 °F 44% 30.15 in 10.0 mi SSW 11.5 mph - N/A   Clear
10:52 AM 50.0 °F - 27.0 °F 41% 30.14 in 10.0 mi SSW 13.8 mph - N/A   Clear
12:52 PM 48.0 °F - 30.0 °F 50% 30.10 in 10.0 mi SE 15.0 mph - N/A   Clear
1:52 PM 48.0 °F - 28.9 °F 48% 30.06 in 10.0 mi SE 13.8 mph - N/A   Clear
2:52 PM 48.0 °F - 28.9 °F 48% 30.02 in 10.0 mi SE 11.5 mph - N/A   Clear
3:52 PM 48.9 °F - 28.9 °F 46% 29.99 in 10.0 mi SE 13.8 mph - N/A   Clear
4:52 PM 48.0 °F - 28.9 °F 48% 30.00 in 10.0 mi SE 10.4 mph - N/A   Partly Cloudy
5:52 PM 46.0 °F 41.0 °F 28.0 °F 50% 30.01 in 10.0 mi SE 10.4 mph - N/A   Scattered Clouds
6:52 PM 46.0 °F 41.0 °F 28.0 °F 50% 30.01 in 10.0 mi SE 10.4 mph - N/A   Partly Cloudy
7:52 PM 42.1 °F 38.4 °F 28.9 °F 60% 29.97 in 10.0 mi ESE 5.8 mph - N/A   Mostly Cloudy
8:52 PM 44.1 °F 40.8 °F 28.0 °F 53% 30.00 in 10.0 mi SSE 5.8 mph - N/A   Mostly Cloudy
9:52 PM 44.1 °F 40.8 °F 27.0 °F 51% 29.99 in 10.0 mi SSE 5.8 mph - N/A   Clear
10:52 PM 43.0 °F 39.5 °F 27.0 °F 53% 29.97 in 10.0 mi SSE 5.8 mph - N/A   Partly Cloudy
11:52 PM 41.0 °F 36.4 °F 27.0 °F 57% 29.96 in 10.0 mi SE 6.9 mph - N/A   Clear